This is the latest recevied weather packets stored in our database for station/object ENBN. If no packets are shown the sender has not sent any weather packets the latest 10 day(s).
| Time | Temp. | Humidity | Pressure | Rain* | Wind** | Luminosity | Snow |
|---|---|---|---|---|---|---|---|
| 1788303787 | 7.78° C | 10% | - | - | - | - | - |
| 1788301986 | 8.89° C | 93% | 1005 hPa | - | - | - | - |
| 1788300187 | 8.89° C | 93% | 1006 hPa | - | - | - | - |
| 1788298387 | 8.89° C | 93% | 1006 hPa | - | - | - | - |
| 1788296588 | 8.89° C | 93% | 1006 hPa | - | - | - | - |
| 1788294787 | 8.89° C | 93% | 1006 hPa | - | - | - | - |
| 1788292986 | 10° C | 87% | 1007 hPa | - | - | - | - |
| 1788291186 | 10° C | 87% | 1007 hPa | - | - | - | - |
| 1788289387 | 10.56° C | 81% | 1007 hPa | - | - | - | - |
| 1788287589 | 10.56° C | 87% | 1007 hPa | - | - | - | - |
| 1788285788 | 11.67° C | 76% | 1007 hPa | - | - | - | - |
| 1788283987 | 11.67° C | 76% | 1008 hPa | - | - | - | - |
| 1788282187 | 13.89° C | 71% | 1008 hPa | - | - | - | - |
| 1788280388 | 13.89° C | 67% | 1008 hPa | - | - | - | - |
| 1788278588 | 12.78° C | 76% | 1008 hPa | - | - | - | - |
| 1788276787 | 13.89° C | 71% | 1008 hPa | - | - | - | - |
| 1788274988 | 13.89° C | 71% | 1008 hPa | - | - | - | - |
| 1788273188 | 15° C | 62% | 1008 hPa | - | - | - | - |
| 1788271387 | 15° C | 67% | 1008 hPa | - | - | - | - |
| 1788267787 | 15° C | 58% | 1008 hPa | - | - | - | - |
| 1788265987 | 15° C | 62% | 1008 hPa | - | - | - | - |
| 1788264188 | 12.78° C | 71% | 1008 hPa | - | - | - | - |
| 1788262387 | 12.78° C | 76% | 1008 hPa | - | - | - | - |
| 1788260590 | 12.78° C | 76% | 1008 hPa | - | - | - | - |
| 1788258787 | 13.89° C | 71% | 1008 hPa | - | - | - | - |
* Rain since midnight (hover to see other rain measurements)
** Current wind speed in m/s (hover to see current wind gust speed)